• en Belgique
  • Liste des pays
  • À 7 jours
  • Température de l'eau
  • Carte satellitaire
  • Carte météo
  • Widgets météo
  • user-avatar
    Se connecter

    Météo par heure à Kerkira

    Ce jour, 25 Septembre, Mardi

    Heure Température Précipitation Vent Pression Humidité
    00:00 +24°C° 0 mm 3 m/s 762 mmHg 88%
    01:00 +23°C° 0 mm 4 m/s 762 mmHg 88%
    02:00 +22°C° 0 mm 4 m/s 762 mmHg 85%
    03:00 +22°C° 0 mm 5 m/s 762 mmHg 82%
    04:00 +22°C° 0 mm 5 m/s 763 mmHg 79%
    05:00 +22°C° 0 mm 6 m/s 763 mmHg 71%
    06:00 +22°C° 0 mm 6 m/s 763 mmHg 64%
    07:00 +22°C° 0 mm 6 m/s 763 mmHg 56%
    08:00 +24°C° 0 mm 6 m/s 764 mmHg 49%
    09:00 +27°C° 0 mm 6 m/s 764 mmHg 43%
    10:00 +29°C° 0 mm 5 m/s 764 mmHg 36%
    11:00 +30°C° 0 mm 6 m/s 764 mmHg 35%
    12:00 +32°C° 0 mm 6 m/s 764 mmHg 34%
    13:00 +32°C° 0 mm 6 m/s 764 mmHg 32%
    14:00 +32°C° 0 mm 7 m/s 764 mmHg 33%
    15:00 +30°C° 0 mm 7 m/s 764 mmHg 34%
    16:00 +29°C° 0 mm 7 m/s 764 mmHg 35%
    17:00 +27°C° 0 mm 7 m/s 764 mmHg 36%
    18:00 +24°C° 0 mm 7 m/s 764 mmHg 37%
    19:00 +22°C° 0 mm 6 m/s 765 mmHg 38%
    20:00 +21°C° 0 mm 6 m/s 765 mmHg 36%
    21:00 +20°C° 0 mm 6 m/s 766 mmHg 34%
    22:00 +19°C° 0 mm 5 m/s 766 mmHg 32%
    23:00 +19°C° 0 mm 5 m/s 766 mmHg 31%

    Demain, 26 Septembre, Mercredi

    Heure Température Précipitation Vent Pression Humidité
    00:00 +17°C° 0 mm 5 m/s 767 mmHg 30%
    01:00 +17°C° 0 mm 5 m/s 767 mmHg 29%
    02:00 +16°C° 0 mm 5 m/s 767 mmHg 31%
    03:00 +16°C° 0 mm 5 m/s 767 mmHg 32%
    04:00 +15°C° 0 mm 4 m/s 767 mmHg 34%
    05:00 +15°C° 0 mm 4 m/s 767 mmHg 35%
    06:00 +15°C° 0 mm 5 m/s 768 mmHg 37%
    07:00 +15°C° 0 mm 5 m/s 768 mmHg 39%
    08:00 +17°C° 0 mm 5 m/s 768 mmHg 36%
    09:00 +20°C° 0 mm 4 m/s 769 mmHg 33%
    10:00 +21°C° 0 mm 4 m/s 769 mmHg 30%
    11:00 +22°C° 0 mm 4 m/s 769 mmHg 29%
    12:00 +24°C° 0 mm 3 m/s 769 mmHg 27%
    13:00 +24°C° 0 mm 3 m/s 769 mmHg 26%
    14:00 +24°C° 0 mm 3 m/s 768 mmHg 26%
    15:00 +22°C° 0 mm 4 m/s 768 mmHg 26%
    16:00 +22°C° 0 mm 4 m/s 768 mmHg 26%
    17:00 +20°C° 0 mm 5 m/s 769 mmHg 28%
    18:00 +19°C° 0 mm 5 m/s 769 mmHg 30%
    19:00 +16°C° 0 mm 6 m/s 769 mmHg 32%
    20:00 +15°C° 0 mm 5 m/s 770 mmHg 33%
    21:00 +15°C° 0 mm 5 m/s 770 mmHg 35%
    22:00 +14°C° 0 mm 5 m/s 771 mmHg 37%
    23:00 +13°C° 0 mm 5 m/s 771 mmHg 38%

    Après-demain, 27 Septembre, Jeudi

    Heure Température Précipitation Vent Pression Humidité
    00:00 +13°C° 0 mm 5 m/s 771 mmHg 39%
    01:00 +12°C° 0 mm 5 m/s 771 mmHg 41%
    02:00 +12°C° 0 mm 5 m/s 770 mmHg 42%
    03:00 +10°C° 0 mm 5 m/s 770 mmHg 43%
    04:00 +10°C° 0 mm 5 m/s 770 mmHg 44%
    05:00 +10°C° 0 mm 5 m/s 770 mmHg 42%
    06:00 +12°C° 0 mm 5 m/s 770 mmHg 41%
    07:00 +13°C° 0 mm 5 m/s 770 mmHg 40%
    08:00 +15°C° 0 mm 5 m/s 769 mmHg 33%
    09:00 +18°C° 0 mm 4 m/s 769 mmHg 27%
    10:00 +20°C° 0 mm 4 m/s 768 mmHg 21%
    11:00 +21°C° 0 mm 4 m/s 768 mmHg 19%
    12:00 +22°C° 0 mm 5 m/s 767 mmHg 17%
    13:00 +23°C° 0 mm 5 m/s 766 mmHg 15%
    14:00 +23°C° 0 mm 5 m/s 766 mmHg 16%
    15:00 +23°C° 0 mm 5 m/s 766 mmHg 16%
    16:00 +23°C° 0 mm 6 m/s 765 mmHg 16%
    17:00 +21°C° 0 mm 5 m/s 765 mmHg 19%
    18:00 +20°C° 0 mm 5 m/s 765 mmHg 21%
    19:00 +18°C° 0 mm 4 m/s 765 mmHg 24%
    20:00 +18°C° 0 mm 4 m/s 765 mmHg 26%
    21:00 +17°C° 0 mm 4 m/s 764 mmHg 28%
    22:00 +15°C° 0 mm 4 m/s 764 mmHg 30%
    23:00 +15°C° 0 mm 4 m/s 764 mmHg 30%

    28 Septembre, Vendredi

    Heure Température Précipitation Vent Pression Humidité
    00:00 +15°C° 0 mm 4 m/s 763 mmHg 30%
    01:00 +17°C° 0 mm 4 m/s 763 mmHg 31%
    02:00 +15°C° 0 mm 4 m/s 763 mmHg 31%
    03:00 +15°C° 0 mm 4 m/s 762 mmHg 31%
    04:00 +15°C° 0 mm 4 m/s 762 mmHg 32%
    05:00 +17°C° 0 mm 4 m/s 762 mmHg 33%
    06:00 +17°C° 0 mm 3 m/s 762 mmHg 34%
    07:00 +17°C° 0 mm 3 m/s 762 mmHg 35%
    08:00 +19°C° 0 mm 3 m/s 762 mmHg 34%
    09:00 +21°C° 0 mm 3 m/s 762 mmHg 33%
    10:00 +23°C° 0 mm 2 m/s 762 mmHg 33%
    11:00 +24°C° 0 mm 2 m/s 761 mmHg 33%
    12:00 +25°C° 0 mm 2 m/s 761 mmHg 34%
    13:00 +26°C° 0 mm 2 m/s 761 mmHg 35%
    14:00 +25°C° 0.1 mm 2 m/s 761 mmHg 40%
    15:00 +24°C° 0.1 mm 3 m/s 761 mmHg 45%
    16:00 +22°C° 0.1 mm 3 m/s 761 mmHg 50%
    17:00 +21°C° 0.1 mm 3 m/s 761 mmHg 55%
    18:00 +20°C° 0.1 mm 2 m/s 761 mmHg 61%
    19:00 +19°C° 0.1 mm 2 m/s 761 mmHg 66%
    20:00 +18°C° 0 mm 2 m/s 761 mmHg 69%
    21:00 +17°C° 0 mm 2 m/s 761 mmHg 71%
    22:00 +16°C° 0 mm 2 m/s 761 mmHg 74%
    23:00 +16°C° 0 mm 2 m/s 761 mmHg 75%

    29 Septembre, Samedi

    Heure Température Précipitation Vent Pression Humidité
    00:00 +16°C° 0 mm 2 m/s 761 mmHg 75%
    01:00 +16°C° 0 mm 3 m/s 761 mmHg 76%
    02:00 +16°C° 0 mm 3 m/s 761 mmHg 76%
    03:00 +14°C° 0 mm 3 m/s 761 mmHg 76%
    04:00 +14°C° 0 mm 3 m/s 761 mmHg 77%
    05:00 +16°C° 0 mm 2 m/s 761 mmHg 74%
    06:00 +17°C° 0 mm 2 m/s 761 mmHg 71%
    07:00 +18°C° 0 mm 2 m/s 761 mmHg 68%
    08:00 +20°C° 0 mm 2 m/s 761 mmHg 60%
    09:00 +23°C° 0 mm 1 m/s 761 mmHg 51%
    10:00 +26°C° 0 mm 1 m/s 761 mmHg 42%
    11:00 +26°C° 0 mm 1 m/s 761 mmHg 41%
    12:00 +27°C° 0 mm 2 m/s 761 mmHg 40%
    13:00 +27°C° 0 mm 3 m/s 761 mmHg 39%
    14:00 +26°C° 0 mm 3 m/s 761 mmHg 41%
    15:00 +26°C° 0 mm 3 m/s 761 mmHg 44%
    16:00 +25°C° 0 mm 4 m/s 761 mmHg 46%
    17:00 +23°C° 0 mm 4 m/s 761 mmHg 49%
    18:00 +22°C° 0 mm 4 m/s 761 mmHg 53%
    19:00 +20°C° 0 mm 4 m/s 762 mmHg 57%
    20:00 +20°C° 0 mm 3 m/s 762 mmHg 57%
    21:00 +19°C° 0 mm 3 m/s 762 mmHg 58%
    22:00 +19°C° 0 mm 2 m/s 762 mmHg 59%
    23:00 +19°C° 0 mm 2 m/s 762 mmHg 59%

    30 Septembre, Dimanche

    Heure Température Précipitation Vent Pression Humidité
    00:00 +18°C° 0 mm 2 m/s 763 mmHg 60%
    01:00 +18°C° 0 mm 2 m/s 763 mmHg 60%
    02:00 +18°C° 0 mm 2 m/s 763 mmHg 59%
    03:00 +18°C° 0 mm 2 m/s 763 mmHg 59%
    04:00 +17°C° 0 mm 2 m/s 763 mmHg 58%
    05:00 +18°C° 0 mm 2 m/s 763 mmHg 55%
    06:00 +19°C° 0 mm 2 m/s 763 mmHg 52%
    07:00 +20°C° 0 mm 2 m/s 763 mmHg 49%
    08:00 +23°C° 0 mm 2 m/s 764 mmHg 44%
    09:00 +25°C° 0 mm 2 m/s 764 mmHg 38%
    10:00 +27°C° 0 mm 2 m/s 764 mmHg 32%
    11:00 +28°C° 0 mm 2 m/s 764 mmHg 33%
    12:00 +28°C° 0 mm 2 m/s 763 mmHg 33%
    13:00 +28°C° 0 mm 2 m/s 763 mmHg 33%
    14:00 +28°C° 0 mm 2 m/s 763 mmHg 37%
    15:00 +27°C° 0 mm 1 m/s 763 mmHg 41%
    16:00 +26°C° 0 mm 1 m/s 763 mmHg 45%
    17:00 +25°C° 0.1 mm 1 m/s 763 mmHg 50%
    18:00 +23°C° 0.1 mm 1 m/s 763 mmHg 56%
    19:00 +22°C° 0.1 mm 1 m/s 763 mmHg 62%
    20:00 +22°C° 0.1 mm 1 m/s 764 mmHg 62%
    21:00 +21°C° 0.1 mm 1 m/s 764 mmHg 63%
    22:00 +21°C° 0.1 mm 1 m/s 764 mmHg 64%
    23:00 +21°C° 0.1 mm 1 m/s 764 mmHg 64%
    Voir plus